{"data":{"norad_id":62527,"epoch":"2026-09-21T11:47:47.812704Z","epoch_age_seconds":85666,"freshness":"FRESH","line1":"1 62527U 25004S   26264.49152561  .00010392  00000+0  38657-3 0  9992","line2":"2 62527  43.0010 194.1102 0000939 295.5822  64.4933 15.27584239 95452","mean_motion":15.27584239,"eccentricity":9.39e-5,"inclination_deg":43.001,"raan_deg":194.1102,"arg_perigee_deg":295.5822,"mean_anomaly_deg":64.4933,"bstar":0.00038657,"rev_number":9545,"period_min":94.266487126279,"perigee_km":482.39213879549,"apogee_km":483.68066716057,"semimajor_km":6861.173402978,"source":"CELESTRAK","updated_at":"2026-09-22T09:00:49.624696Z"}}